BEIDOU-3 G3

Last updated on Tue Sep 22 2026 00:03:15 GMT+0000 (Coordinated Universal Time)

1 45807U 20040A 26264.65355981 -.00000356 00000+0 00000+0 0 9995 2 45807 2.6787 67.3870 0003012 293.2632 345.7088 1.00276155 23030
UTC large
Height (km)
Speed (km/s)
/
Latitude / Longitude
Inclination (degrees)
Orbital Period (minutes)
Azimuth
Elevation
Range (km)
Doppler Factor

Next 0 passes for location: London (51.5072 / 0.1276)

No passes found over London.
BEIDOU-3 G3